EZY1502 GCRR-LPFR

Flight info

Callsign EZY1502
Flight time 1h 26m
Altitude 36000
Route DESUM DCT AKUDA DCT OBOLO DCT GIMAL
Aircraft A320/M-SDE3FGHIRWY/LB1

Departure

Time 2026-05-05 17:16
Airport César Manrique-Lanzarote Airport (GCRR)

Arrival

Time 2026-05-05 18:42
Airport Faro - Gago Coutinho International Airport (LPFR)
Time Latitude Longitude Altitude Speed Heading
2026-05-05 16:49 28.95078 -13.60509 48 ft 0 kts 296°
2026-05-05 16:50 28.94994 -13.60564 47 ft 0 kts 296°
2026-05-05 17:09 28.95004 -13.60586 47 ft 6 kts 297°
2026-05-05 17:09 28.95020 -13.60623 47 ft 4 kts 283°
2026-05-05 17:09 28.94989 -13.60650 46 ft 8 kts 198°
2026-05-05 17:10 28.94937 -13.60671 46 ft 8 kts 199°
2026-05-05 17:10 28.94898 -13.60647 45 ft 6 kts 117°
2026-05-05 17:10 28.94881 -13.60606 27 ft 5 kts 114°
2026-05-05 17:10 28.94858 -13.60567 45 ft 10 kts 145°
2026-05-05 17:11 28.94789 -13.60591 44 ft 11 kts 205°
2026-05-05 17:11 28.94721 -13.60628 43 ft 11 kts 206°
2026-05-05 17:11 28.94654 -13.60667 42 ft 11 kts 207°
2026-05-05 17:11 28.94571 -13.60716 41 ft 15 kts 207°
2026-05-05 17:12 28.94464 -13.60776 39 ft 18 kts 206°
2026-05-05 17:12 28.94354 -13.60840 37 ft 17 kts 207°
2026-05-05 17:12 28.94247 -13.60903 36 ft 17 kts 207°
2026-05-05 17:12 28.94141 -13.60964 35 ft 17 kts 207°
2026-05-05 17:13 28.94037 -13.61023 34 ft 17 kts 206°
2026-05-05 17:13 28.93935 -13.61084 32 ft 16 kts 207°
2026-05-05 17:13 28.93835 -13.61142 31 ft 16 kts 206°
2026-05-05 17:13 28.93740 -13.61198 29 ft 8 kts 208°
2026-05-05 17:14 28.93688 -13.61223 28 ft 8 kts 192°
2026-05-05 17:14 28.93643 -13.61198 28 ft 7 kts 118°
2026-05-05 17:14 28.93618 -13.61140 27 ft 10 kts 116°
2026-05-05 17:14 28.93595 -13.61077 28 ft 6 kts 91°
2026-05-05 17:15 28.93627 -13.61054 29 ft 6 kts 23°
2026-05-05 17:15 28.93642 -13.61045 29 ft 0 kts 25°
2026-05-05 17:15 28.93689 -13.61019 30 ft 35 kts 26°
2026-05-05 17:15 28.94124 -13.60764 37 ft 102 kts 27°
2026-05-05 17:16 28.94917 -13.60308 132 ft 145 kts 30°
2026-05-05 17:16 28.95798 -13.59777 816 ft 145 kts 34°
2026-05-05 17:16 28.96626 -13.59119 1551 ft 149 kts 37°
2026-05-05 17:16 28.97512 -13.58357 1986 ft 169 kts 37°
2026-05-05 17:17 28.98515 -13.57498 2289 ft 192 kts 36°
2026-05-05 17:17 28.99646 -13.56534 2694 ft 212 kts 36°
2026-05-05 17:17 29.00882 -13.55445 3135 ft 238 kts 41°
2026-05-05 17:17 29.02066 -13.54005 3784 ft 256 kts 48°
2026-05-05 17:18 29.03270 -13.52469 4642 ft 263 kts 37°
2026-05-05 17:18 29.04898 -13.51525 5455 ft 266 kts 11°
2026-05-05 17:18 29.06751 -13.51215 6278 ft 273 kts
2026-05-05 17:18 29.08657 -13.50949 7080 ft 280 kts
2026-05-05 17:19 29.10616 -13.50680 7902 ft 286 kts
2026-05-05 17:19 29.12606 -13.50404 8750 ft 290 kts
2026-05-05 17:19 29.14633 -13.50114 9584 ft 297 kts
2026-05-05 17:19 29.16705 -13.49812 10321 ft 307 kts
2026-05-05 17:20 29.18875 -13.49505 10636 ft 330 kts
2026-05-05 17:20 29.21201 -13.49176 11211 ft 342 kts
2026-05-05 17:20 29.23583 -13.48829 11973 ft 348 kts
2026-05-05 17:20 29.26005 -13.48472 12738 ft 353 kts
2026-05-05 17:21 29.28455 -13.48113 13495 ft 358 kts
2026-05-05 17:21 29.30939 -13.47750 14193 ft 362 kts
2026-05-05 17:21 29.33461 -13.47383 14846 ft 367 kts
2026-05-05 17:22 29.38589 -13.46640 16127 ft 376 kts
2026-05-05 17:22 29.41204 -13.46259 16766 ft 381 kts
2026-05-05 17:22 29.43845 -13.45875 17409 ft 385 kts
2026-05-05 17:22 29.46520 -13.45486 18051 ft 389 kts 360°
2026-05-05 17:23 29.49218 -13.45093 18638 ft 394 kts 360°
2026-05-05 17:23 29.51952 -13.44695 19182 ft 398 kts 359°
2026-05-05 17:23 29.54711 -13.44289 19723 ft 402 kts 359°
2026-05-05 17:23 29.57503 -13.43877 20263 ft 406 kts 359°
2026-05-05 17:24 29.60318 -13.43464 20794 ft 410 kts 358°
2026-05-05 17:24 29.63169 -13.43051 21316 ft 414 kts 358°
2026-05-05 17:24 29.66050 -13.42635 21823 ft 419 kts 358°
2026-05-05 17:24 29.68950 -13.42212 22325 ft 423 kts 357°
2026-05-05 17:25 29.71849 -13.41784 22816 ft 427 kts 357°
2026-05-05 17:25 29.73848 -13.41488 23159 ft 430 kts 357°
2026-05-05 17:25 29.77806 -13.40902 23766 ft 435 kts 357°
2026-05-05 17:25 29.80825 -13.40458 24180 ft 438 kts 357°
2026-05-05 17:26 29.83864 -13.40011 24595 ft 441 kts 357°
2026-05-05 17:26 29.86929 -13.39558 25014 ft 444 kts 357°
2026-05-05 17:26 29.90006 -13.39104 25423 ft 447 kts 357°
2026-05-05 17:26 29.93099 -13.38653 25833 ft 450 kts 357°
2026-05-05 17:27 29.96215 -13.38196 26235 ft 453 kts 357°
2026-05-05 17:27 29.99353 -13.37734 26622 ft 456 kts 357°
2026-05-05 17:27 30.02510 -13.37269 27021 ft 459 kts 357°
2026-05-05 17:27 30.05641 -13.36805 27404 ft 461 kts 357°
2026-05-05 17:28 30.08833 -13.36332 27792 ft 464 kts 357°
2026-05-05 17:28 30.12042 -13.35860 28167 ft 466 kts 357°
2026-05-05 17:28 30.15276 -13.35385 28559 ft 469 kts 357°
2026-05-05 17:28 30.18527 -13.34904 28931 ft 472 kts 357°
2026-05-05 17:29 30.21792 -13.34420 29303 ft 475 kts 357°
2026-05-05 17:29 30.25081 -13.33933 29664 ft 478 kts 357°
2026-05-05 17:29 30.28384 -13.33444 30018 ft 480 kts 357°
2026-05-05 17:29 30.31712 -13.32949 30328 ft 483 kts 357°
2026-05-05 17:30 30.35052 -13.32452 30639 ft 485 kts 358°
2026-05-05 17:30 30.38400 -13.31597 30935 ft 502 kts
2026-05-05 17:30 30.41640 -13.29926 31221 ft 519 kts 24°
2026-05-05 17:30 30.44722 -13.27711 31504 ft 523 kts 25°
2026-05-05 17:31 30.47802 -13.25464 31849 ft 523 kts 25°
2026-05-05 17:31 30.50877 -13.23215 32029 ft 522 kts 25°
2026-05-05 17:31 30.53949 -13.20970 32068 ft 521 kts 25°
2026-05-05 17:32 30.60083 -13.16500 32059 ft 520 kts 25°
2026-05-05 17:32 30.66205 -13.12031 32063 ft 519 kts 25°
2026-05-05 17:33 30.72262 -13.07593 32067 ft 518 kts 26°
2026-05-05 17:33 30.78356 -13.03126 32059 ft 517 kts 26°
2026-05-05 17:34 30.84435 -12.98663 32063 ft 516 kts 26°
2026-05-05 17:34 30.90496 -12.94207 32063 ft 515 kts 26°
2026-05-05 17:35 30.96547 -12.89754 32065 ft 513 kts 26°
2026-05-05 17:35 31.02570 -12.85308 32068 ft 510 kts 26°
2026-05-05 17:36 31.07540 -12.81629 32066 ft 507 kts 26°
2026-05-05 17:36 31.14445 -12.76521 32067 ft 504 kts 27°
2026-05-05 17:37 31.20353 -12.72145 32065 ft 501 kts 27°
2026-05-05 17:37 31.25281 -12.68494 32068 ft 500 kts 27°
2026-05-05 17:38 31.31142 -12.64151 32067 ft 498 kts 27°
2026-05-05 17:38 31.36970 -12.59803 32068 ft 496 kts 27°
2026-05-05 17:39 31.42767 -12.55478 32070 ft 493 kts 27°
2026-05-05 17:39 31.48531 -12.51188 32069 ft 490 kts 28°
2026-05-05 17:40 31.54211 -12.46935 32080 ft 486 kts 28°
2026-05-05 17:40 31.59902 -12.42670 32078 ft 484 kts 28°
2026-05-05 17:41 31.65561 -12.38426 32080 ft 482 kts 28°
2026-05-05 17:41 31.71201 -12.34192 32067 ft 480 kts 28°
2026-05-05 17:42 31.76827 -12.29982 32073 ft 479 kts 29°
2026-05-05 17:42 31.82431 -12.25770 32062 ft 477 kts 29°
2026-05-05 17:43 31.88006 -12.21559 32067 ft 475 kts 29°
2026-05-05 17:43 31.93554 -12.17371 32072 ft 473 kts 30°
2026-05-05 17:44 31.99084 -12.13186 32072 ft 472 kts 30°
2026-05-05 17:44 32.04565 -12.09028 32074 ft 471 kts 30°
2026-05-05 17:45 32.10065 -12.04851 32075 ft 470 kts 30°
2026-05-05 17:45 32.15557 -12.00684 32074 ft 469 kts 30°
2026-05-05 17:46 32.21044 -11.96520 32076 ft 468 kts 30°
2026-05-05 17:46 32.26510 -11.92359 32076 ft 467 kts 30°
2026-05-05 17:47 32.31970 -11.88186 32077 ft 466 kts 30°
2026-05-05 17:47 32.37418 -11.84029 32076 ft 466 kts 30°
2026-05-05 17:48 32.42825 -11.79899 32080 ft 465 kts 30°
2026-05-05 17:48 32.48257 -11.75729 32079 ft 465 kts 30°
2026-05-05 17:49 32.53678 -11.71566 32078 ft 464 kts 30°
2026-05-05 17:49 32.59099 -11.67403 32081 ft 464 kts 31°
2026-05-05 17:50 32.64506 -11.63247 32081 ft 462 kts 31°
2026-05-05 17:50 32.69895 -11.59096 32082 ft 461 kts 31°
2026-05-05 17:51 32.75278 -11.54939 32083 ft 460 kts 31°
2026-05-05 17:51 32.80638 -11.50795 32086 ft 459 kts 31°
2026-05-05 17:52 32.85984 -11.46654 32086 ft 458 kts 31°
2026-05-05 17:52 32.91327 -11.42514 32087 ft 458 kts 31°
2026-05-05 17:53 32.96666 -11.38372 32088 ft 458 kts 31°
2026-05-05 17:53 33.01996 -11.34229 32085 ft 458 kts 31°
2026-05-05 17:54 33.07301 -11.30095 32091 ft 458 kts 31°
2026-05-05 17:54 33.12623 -11.25946 32202 ft 457 kts 31°
2026-05-05 17:54 33.15291 -11.23866 32399 ft 457 kts 31°
2026-05-05 17:55 33.17950 -11.21788 32621 ft 457 kts 31°
2026-05-05 17:55 33.20611 -11.19707 32831 ft 457 kts 31°
2026-05-05 17:55 33.23265 -11.17632 33047 ft 456 kts 31°
2026-05-05 17:55 33.25917 -11.15560 33257 ft 455 kts 31°
2026-05-05 17:56 33.28570 -11.13486 33474 ft 455 kts 31°
2026-05-05 17:56 33.31214 -11.11413 33700 ft 454 kts 31°
2026-05-05 17:56 33.33854 -11.09336 33912 ft 454 kts 31°
2026-05-05 17:56 33.36493 -11.07261 34124 ft 453 kts 31°
2026-05-05 17:57 33.39127 -11.05185 34315 ft 453 kts 31°
2026-05-05 17:57 33.41759 -11.03112 34502 ft 454 kts 31°
2026-05-05 17:57 33.44398 -11.01037 34695 ft 454 kts 31°
2026-05-05 17:57 33.47049 -10.98961 34897 ft 455 kts 30°
2026-05-05 17:58 33.49697 -10.96884 35090 ft 456 kts 30°
2026-05-05 17:58 33.52351 -10.94798 35278 ft 457 kts 30°
2026-05-05 17:58 33.55010 -10.92702 35475 ft 458 kts 30°
2026-05-05 17:58 33.57670 -10.90600 35678 ft 458 kts 30°
2026-05-05 17:59 33.60337 -10.88491 35881 ft 459 kts 30°
2026-05-05 17:59 33.63006 -10.86373 36052 ft 461 kts 30°
2026-05-05 17:59 33.65668 -10.84259 36094 ft 456 kts 30°
2026-05-05 18:00 33.70908 -10.80100 36095 ft 453 kts 30°
2026-05-05 18:00 33.76167 -10.75934 36092 ft 453 kts 30°
2026-05-05 18:01 33.81425 -10.71762 36094 ft 453 kts 30°
2026-05-05 18:01 33.86673 -10.67576 36095 ft 452 kts 30°
2026-05-05 18:02 33.91922 -10.63384 36099 ft 452 kts 30°
2026-05-05 18:02 33.97164 -10.59206 36103 ft 452 kts 30°
2026-05-05 18:03 34.02410 -10.55019 36103 ft 452 kts 30°
2026-05-05 18:03 34.07640 -10.50822 36104 ft 451 kts 31°
2026-05-05 18:04 34.12871 -10.46618 36106 ft 451 kts 31°
2026-05-05 18:04 34.18095 -10.42427 36111 ft 451 kts 30°
2026-05-05 18:05 34.23320 -10.38239 36108 ft 451 kts 31°
2026-05-05 18:05 34.28505 -10.34060 36107 ft 451 kts 31°
2026-05-05 18:06 34.33718 -10.29844 36107 ft 451 kts 31°
2026-05-05 18:06 34.38928 -10.25626 36105 ft 451 kts 31°
2026-05-05 18:07 34.44140 -10.21401 36106 ft 451 kts 31°
2026-05-05 18:07 34.49359 -10.17182 36106 ft 451 kts 31°
2026-05-05 18:08 34.54575 -10.12951 36103 ft 451 kts 31°
2026-05-05 18:08 34.59789 -10.08705 36106 ft 451 kts 31°
2026-05-05 18:09 34.65002 -10.04458 36108 ft 451 kts 31°
2026-05-05 18:09 34.70215 -10.00216 36105 ft 451 kts 31°
2026-05-05 18:10 34.75427 -9.95964 36110 ft 451 kts 31°
2026-05-05 18:10 34.80642 -9.91694 36108 ft 451 kts 31°
2026-05-05 18:11 34.85848 -9.87425 36108 ft 451 kts 31°
2026-05-05 18:11 34.91053 -9.83146 36109 ft 451 kts 31°
2026-05-05 18:12 34.96226 -9.78896 36107 ft 451 kts 31°
2026-05-05 18:12 35.01434 -9.74621 36104 ft 452 kts 31°
2026-05-05 18:13 35.06641 -9.70323 36104 ft 452 kts 31°
2026-05-05 18:13 35.11855 -9.66015 36107 ft 452 kts 31°
2026-05-05 18:14 35.17068 -9.61708 36104 ft 452 kts 31°
2026-05-05 18:14 35.22280 -9.57399 36104 ft 453 kts 31°
2026-05-05 18:15 35.27495 -9.53066 36106 ft 453 kts 31°
2026-05-05 18:15 35.32707 -9.48730 36103 ft 453 kts 31°
2026-05-05 18:16 35.37923 -9.44382 36105 ft 453 kts 31°
2026-05-05 18:16 35.43140 -9.40034 36105 ft 454 kts 31°
2026-05-05 18:17 35.48351 -9.35683 36106 ft 454 kts 31°
2026-05-05 18:17 35.53582 -9.31313 36101 ft 454 kts 31°
2026-05-05 18:18 35.58804 -9.26942 36101 ft 454 kts 31°
2026-05-05 18:18 35.64049 -9.22535 35775 ft 457 kts 31°
2026-05-05 18:18 35.66668 -9.20336 35527 ft 455 kts 31°
2026-05-05 18:19 35.69246 -9.18169 35286 ft 453 kts 31°
2026-05-05 18:19 35.71843 -9.15981 35026 ft 451 kts 31°
2026-05-05 18:19 35.74426 -9.13806 34542 ft 448 kts 31°
2026-05-05 18:19 35.77000 -9.11640 33975 ft 447 kts 32°
2026-05-05 18:20 35.79561 -9.09480 33417 ft 445 kts 31°
2026-05-05 18:20 35.81284 -9.08026 33043 ft 443 kts 31°
2026-05-05 18:20 35.84480 -9.04968 32543 ft 437 kts 39°
2026-05-05 18:20 35.86731 -9.02467 32008 ft 435 kts 39°
2026-05-05 18:21 35.88971 -8.99975 31492 ft 433 kts 39°
2026-05-05 18:21 35.91198 -8.97489 30983 ft 431 kts 39°
2026-05-05 18:21 35.93408 -8.95015 30480 ft 428 kts 39°
2026-05-05 18:21 35.95612 -8.92542 29959 ft 426 kts 39°
2026-05-05 18:22 35.97798 -8.90089 29463 ft 422 kts 39°
2026-05-05 18:22 35.99955 -8.87664 28996 ft 418 kts 39°
2026-05-05 18:22 36.02091 -8.85262 28533 ft 413 kts 39°
2026-05-05 18:22 36.04208 -8.82882 28080 ft 409 kts 39°
2026-05-05 18:23 36.06305 -8.80522 27620 ft 406 kts 39°
2026-05-05 18:23 36.08378 -8.78186 27167 ft 402 kts 39°
2026-05-05 18:23 36.10438 -8.75864 26691 ft 399 kts 39°
2026-05-05 18:23 36.12487 -8.73556 26225 ft 397 kts 39°
2026-05-05 18:24 36.14526 -8.71257 25736 ft 395 kts 39°
2026-05-05 18:24 36.16553 -8.68969 25249 ft 394 kts 39°
2026-05-05 18:24 36.18578 -8.66685 24741 ft 393 kts 39°
2026-05-05 18:24 36.19919 -8.65171 24407 ft 393 kts 39°
2026-05-05 18:25 36.21935 -8.62892 23897 ft 392 kts 39°
2026-05-05 18:25 36.23272 -8.61379 23545 ft 392 kts 39°
2026-05-05 18:25 36.25827 -8.58069 22495 ft 400 kts 45°
2026-05-05 18:25 36.27636 -8.55495 21991 ft 392 kts 46°
2026-05-05 18:26 36.29384 -8.52942 21467 ft 385 kts 47°
2026-05-05 18:26 36.31090 -8.50427 20994 ft 380 kts 47°
2026-05-05 18:26 36.32789 -8.47925 20516 ft 378 kts 47°
2026-05-05 18:26 36.34483 -8.45441 20047 ft 377 kts 47°
2026-05-05 18:27 36.36176 -8.42967 19575 ft 376 kts 47°
2026-05-05 18:27 36.37866 -8.40503 19104 ft 375 kts 47°
2026-05-05 18:27 36.39553 -8.38048 18713 ft 372 kts 47°
2026-05-05 18:27 36.41232 -8.35603 18279 ft 370 kts 47°
2026-05-05 18:28 36.44513 -8.30822 17240 ft 356 kts 46°
2026-05-05 18:28 36.46101 -8.28509 16819 ft 348 kts 46°
2026-05-05 18:28 36.47656 -8.26241 16401 ft 341 kts 46°
2026-05-05 18:29 36.49188 -8.24007 15996 ft 339 kts 46°
2026-05-05 18:29 36.50718 -8.21776 15591 ft 339 kts 46°
2026-05-05 18:29 36.52230 -8.19569 15188 ft 339 kts 46°
2026-05-05 18:29 36.53759 -8.17333 14786 ft 339 kts 47°
2026-05-05 18:30 36.55285 -8.15098 14383 ft 339 kts 47°
2026-05-05 18:30 36.56811 -8.12861 13974 ft 339 kts 47°
2026-05-05 18:30 36.58338 -8.10618 13521 ft 339 kts 47°
2026-05-05 18:30 36.59859 -8.08382 13118 ft 337 kts 47°
2026-05-05 18:31 36.61369 -8.06159 12691 ft 336 kts 47°
2026-05-05 18:31 36.62877 -8.03939 12267 ft 334 kts 47°
2026-05-05 18:31 36.64373 -8.01738 11883 ft 332 kts 47°
2026-05-05 18:31 36.65866 -7.99545 11462 ft 330 kts 47°
2026-05-05 18:32 36.67345 -7.97372 11021 ft 328 kts 47°
2026-05-05 18:32 36.68798 -7.95234 10567 ft 320 kts 47°
2026-05-05 18:32 36.70235 -7.93118 10154 ft 319 kts 47°
2026-05-05 18:32 36.71663 -7.91013 9830 ft 315 kts 47°
2026-05-05 18:33 36.73052 -7.88958 9664 ft 305 kts 47°
2026-05-05 18:33 36.74396 -7.86967 9134 ft 297 kts 47°
2026-05-05 18:33 36.75701 -7.85038 8525 ft 292 kts 47°
2026-05-05 18:33 36.77007 -7.83105 7963 ft 284 kts 47°
2026-05-05 18:34 36.78251 -7.81263 7588 ft 273 kts 47°
2026-05-05 18:34 36.79458 -7.79477 7199 ft 272 kts 47°
2026-05-05 18:34 36.80678 -7.77673 6779 ft 272 kts 47°
2026-05-05 18:34 36.81896 -7.75869 6389 ft 270 kts 47°
2026-05-05 18:35 36.83098 -7.74085 5969 ft 268 kts 47°
2026-05-05 18:35 36.84280 -7.72330 5530 ft 259 kts 47°
2026-05-05 18:35 36.85422 -7.70651 5124 ft 246 kts 44°
2026-05-05 18:35 36.86697 -7.69380 5063 ft 228 kts 28°
2026-05-05 18:36 36.88136 -7.68626 4981 ft 223 kts 13°
2026-05-05 18:36 36.89666 -7.68356 4885 ft 222 kts
2026-05-05 18:36 36.91214 -7.68193 4781 ft 223 kts
2026-05-05 18:36 36.92758 -7.68026 4677 ft 223 kts
2026-05-05 18:37 36.94300 -7.67858 4574 ft 222 kts
2026-05-05 18:37 36.95843 -7.67740 4468 ft 221 kts 355°
2026-05-05 18:37 36.97210 -7.68508 4369 ft 223 kts 314°
2026-05-05 18:37 36.97931 -7.70230 4272 ft 228 kts 289°
2026-05-05 18:38 36.98144 -7.72212 3909 ft 235 kts 274°
2026-05-05 18:38 36.98266 -7.74248 3487 ft 232 kts 281°
2026-05-05 18:38 36.98519 -7.76215 3165 ft 226 kts 283°
2026-05-05 18:38 36.98793 -7.78109 2863 ft 215 kts 284°
2026-05-05 18:39 36.99048 -7.79871 2591 ft 198 kts 284°
2026-05-05 18:39 36.99283 -7.81505 2345 ft 186 kts 284°
2026-05-05 18:39 36.99509 -7.83073 2104 ft 181 kts 284°
2026-05-05 18:39 36.99727 -7.84589 1876 ft 171 kts 284°
2026-05-05 18:40 36.99929 -7.86006 1639 ft 160 kts 285°
2026-05-05 18:40 37.00116 -7.87317 1425 ft 148 kts 286°
2026-05-05 18:40 37.00291 -7.88539 1234 ft 138 kts 285°
2026-05-05 18:40 37.00455 -7.89679 1059 ft 131 kts 286°
2026-05-05 18:41 37.00613 -7.90783 884 ft 128 kts 285°
2026-05-05 18:41 37.00769 -7.91872 703 ft 126 kts 284°
2026-05-05 18:41 37.00925 -7.92957 540 ft 127 kts 284°
2026-05-05 18:41 37.01079 -7.94037 371 ft 125 kts 285°
2026-05-05 18:42 37.01232 -7.95113 204 ft 126 kts 283°
2026-05-05 18:42 37.01388 -7.96190 40 ft 125 kts 283°
2026-05-05 18:42 37.01529 -7.97120 22 ft 86 kts 282°
2026-05-05 18:42 37.01598 -7.97640 19 ft 40 kts 280°
2026-05-05 18:43 37.01629 -7.97855 21 ft 22 kts 278°
2026-05-05 18:43 37.01662 -7.98023 23 ft 19 kts 295°
2026-05-05 18:43 37.01728 -7.98156 22 ft 17 kts 307°
2026-05-05 18:43 37.01790 -7.98228 21 ft 9 kts 340°
2026-05-05 18:44 37.01844 -7.98197 21 ft 10 kts 70°
2026-05-05 18:44 37.01842 -7.98117 23 ft 9 kts 102°
2026-05-05 18:44 37.01830 -7.98044 20 ft 8 kts 101°
2026-05-05 18:44 37.01822 -7.97978 20 ft 7 kts 96°
2026-05-05 18:45 37.01815 -7.97913 23 ft 9 kts 99°
2026-05-05 18:45 37.01801 -7.97816 20 ft 12 kts 99°
2026-05-05 18:45 37.01788 -7.97720 20 ft 11 kts 100°
2026-05-05 18:45 37.01775 -7.97631 20 ft 10 kts 101°
2026-05-05 18:46 37.01762 -7.97543 20 ft 12 kts 100°
2026-05-05 18:46 37.01747 -7.97439 20 ft 12 kts 100°
2026-05-05 18:46 37.01734 -7.97343 20 ft 11 kts 99°
2026-05-05 18:46 37.01721 -7.97244 20 ft 12 kts 100°
2026-05-05 18:47 37.01707 -7.97142 20 ft 11 kts 100°
2026-05-05 18:47 37.01693 -7.97050 20 ft 10 kts 100°
2026-05-05 18:47 37.01680 -7.96963 21 ft 10 kts 100°
2026-05-05 18:47 37.01701 -7.96903 20 ft 8 kts 13°
2026-05-05 18:48 37.01759 -7.96896 20 ft 9 kts
2026-05-05 18:48 37.01822 -7.96888 20 ft 9 kts 339°
2026-05-05 18:48 37.01858 -7.96922 20 ft 6 kts
2026-05-05 18:48 37.01899 -7.96913 20 ft 6 kts
2026-05-05 18:49 37.01925 -7.96908 20 ft 0 kts 11°